EW4225 Weather Reports


Display with metric or nautical units.
time (UTC)temp
F
wind
direction
speed
MPH
gust
MPH
rain 1hr
in
rain 24hr
in
rain mn
in
humidity
%
barometer
mb
20190124040013 18 272 0.0 0.0 0.00 0.00 0.00 89 1011.4
20190124035512 18 302 0.0 0.0 0.00 0.00 0.00 89 1011.3
20190124035010 18 318 0.0 0.0 0.00 0.00 0.00 89 1011.4
20190124034519 18 313 0.0 0.0 0.00 0.00 0.00 89 1011.5
20190124034010 18 258 0.0 0.0 0.00 0.00 0.00 89 1011.3
20190124033514 18 273 0.0 0.0 0.00 0.00 0.00 89 1011.3
20190124033013 18 285 0.0 0.0 0.00 0.00 0.00 89 1011.3
20190124032511 18 288 0.0 0.0 0.00 0.00 0.00 90 1011.3
20190124032010 18 304 0.0 0.0 0.00 0.00 0.00 89 1011.3
20190124031518 18 306 0.0 0.0 0.00 0.00 0.00 90 1011.4
20190124031008 18 313 0.0 0.0 0.00 0.00 0.00 90 1011.3
20190124030509 18 310 0.0 0.0 0.00 0.00 0.00 90 1011.3
20190124030045 18 248 0.0 0.0 0.00 0.00 0.00 90 1011.4
20190124025509 18 240 0.0 0.0 0.00 0.00 0.00 90 1011.4
20190124025009 18 299 0.0 0.0 0.00 0.00 0.00 90 1011.7
20190124024529 18 268 0.0 0.0 0.00 0.00 0.00 90 1011.5
20190124024012 18 273 0.0 0.0 0.00 0.00 0.00 90 1011.7
20190124023508 18 273 0.0 0.0 0.00 0.00 0.00 90 1011.5
20190124023039 18 281 0.0 0.0 0.00 0.00 0.00 90 1011.6
20190124022509 19 286 0.0 0.0 0.00 0.00 0.00 90 1011.7
20190124022010 19 278 0.0 0.0 0.00 0.00 0.00 90 1011.5
20190124021518 19 308 0.0 0.0 0.00 0.00 0.00 90 1011.4
20190124021009 19 291 0.0 0.0 0.00 0.00 0.00 90 1011.5
20190124020513 19 257 0.0 0.0 0.00 0.00 0.00 90 1011.4
20190124020012 19 298 0.0 0.0 0.00 0.00 0.00 90 1011.4
20190124015511 19 277 0.0 0.0 0.00 0.00 0.00 90 1011.7
20190124015011 19 300 0.0 0.0 0.00 0.00 0.00 90 1011.5
20190124014557 19 258 0.0 0.0 0.00 0.00 0.00 90 1011.5
20190124014013 19 302 0.0 0.0 0.00 0.00 0.00 90 1011.5
20190124013517 19 292 0.0 0.0 0.00 0.00 0.00 90 1011.4
20190124013028 19 306 0.0 0.0 0.00 0.00 0.00 90 1011.3
20190124012511 19 269 0.0 0.0 0.00 0.00 0.00 90 1011.3
20190124012009 19 298 0.0 0.0 0.00 0.00 0.00 90 1011.2
20190124011528 19 293 0.0 0.0 0.00 0.00 0.00 90 1011.2
20190124011012 19 306 0.0 0.0 0.00 0.00 0.00 90 1011.2
20190124010514 19 290 0.0 0.0 0.00 0.00 0.00 90 1011.0
20190124010025 19 309 0.0 0.0 0.00 0.00 0.00 90 1010.9
20190124005510 19 293 0.0 0.0 0.00 0.00 0.00 90 1010.9
20190124005006 19 288 0.0 0.0 0.00 0.00 0.00 90 1011.0
20190124004513 19 294 0.0 0.0 0.00 0.00 0.00 90 1010.8
20190124004014 19 304 0.0 0.0 0.00 0.00 0.00 90 1010.8
20190124003509 19 297 0.0 0.0 0.00 0.00 0.00 89 1010.7
20190124003016 19 321 0.0 0.0 0.00 0.00 0.00 89 1010.6
20190124002510 19 320 0.0 0.0 0.00 0.00 0.00 89 1010.4
20190124002008 19 300 0.0 0.0 0.00 0.00 0.00 89 1010.3
20190124001520 19 300 0.0 0.0 0.00 0.00 0.00 89 1010.5
20190124001004 19 315 0.0 0.0 0.00 0.00 0.00 89 1010.3
20190124000513 19 315 0.0 0.0 0.00 0.00 0.00 89 1010.2
20190124000018 19 300 0.0 0.0 0.00 0.00 0.00 89 1010.2
20190123235511 19 291 0.0 0.0 0.00 0.00 0.00 89 1010.2
20190123235015 19 304 0.0 0.0 0.00 0.00 0.00 89 1010.2
20190123234526 20 250 0.0 0.0 0.00 0.00 0.00 89 1010.5
20190123234009 20 325 0.0 0.0 0.00 0.00 0.00 89 1010.2
20190123233511 20 290 0.0 0.0 0.00 0.00 0.00 88 1010.2
20190123233042 20 258 0.0 0.0 0.00 0.00 0.00 88 1010.0
20190123232513 20 242 0.0 0.0 0.00 0.00 0.00 88 1010.0
20190123232009 20 269 0.0 0.0 0.00 0.00 0.00 88 1009.3
20190123231518 20 292 0.0 0.0 0.00 0.00 0.00 88 1009.5
20190123231003 20 296 0.0 0.0 0.00 0.00 0.00 88 1009.1
20190123230515 20 277 0.0 0.0 0.00 0.00 0.00 88 1009.0
20190123230004 21 292 0.0 0.0 0.00 0.00 0.00 88 1009.1
20190123225509 21 277 0.0 0.0 0.00 0.00 0.00 87 1009.3
20190123225018 21 316 0.0 0.0 0.00 0.00 0.00 88 1009.6
20190123224530 21 304 0.0 0.0 0.00 0.00 0.00 87 1009.5
20190123224012 21 289 0.0 0.0 0.00 0.00 0.00 87 1009.4
20190123223512 21 313 0.0 0.0 0.00 0.00 0.00 87 1009.2
20190123223011 21 311 0.0 0.0 0.00 0.00 0.00 87 1009.2
20190123222515 21 315 0.0 0.0 0.00 0.00 0.00 87 1009.0
20190123222014 21 323 0.0 0.0 0.00 0.00 0.00 87 1009.0
20190123221541 22 309 0.0 1.0 0.00 0.00 0.00 87 1008.8
20190123221012 22 299 0.0 3.0 0.00 0.00 0.00 87 1008.8
20190123220508 22 301 0.0 2.0 0.00 0.00 0.00 87 1008.9
20190123220040 22 313 0.0 0.0 0.00 0.00 0.00 87 1008.8
20190123215510 22 296 0.0 0.0 0.00 0.00 0.00 87 1008.7
20190123215004 22 299 0.0 0.0 0.00 0.00 0.00 87 1008.6
20190123214009 22 298 0.0 0.0 0.00 0.00 0.00 87 1008.7
20190123213503 22 304 0.0 0.0 0.00 0.00 0.00 87 1008.5
20190123213019 22 325 0.0 0.0 0.00 0.00 0.00 87 1008.6
20190123212502 22 317 0.0 0.0 0.00 0.00 0.00 87 1008.5
20190123212011 23 270 0.0 0.0 0.00 0.00 0.00 87 1008.3
20190123211548 23 317 0.0 0.0 0.00 0.00 0.00 87 1008.1
20190123211008 23 306 0.0 0.0 0.00 0.00 0.00 87 1008.0
20190123210506 23 313 0.0 0.0 0.00 0.00 0.00 87 1007.9
20190123205509 23 313 0.0 0.0 0.00 0.00 0.00 88 1008.0
20190123205010 23 288 0.0 0.0 0.00 0.00 0.00 87 1008.0
20190123204525 23 322 0.0 0.0 0.00 0.00 0.00 87 1008.1
20190123204015 22 332 0.0 0.0 0.00 0.00 0.00 87 1007.9
20190123203509 22 325 0.0 0.0 0.00 0.00 0.00 87 1007.7
20190123203009 22 316 0.0 0.0 0.00 0.00 0.00 87 1007.8
20190123202508 23 321 0.0 0.0 0.00 0.00 0.00 88 1007.7
20190123202002 23 300 0.0 0.0 0.00 0.00 0.00 88 1007.6
20190123201505 22 311 0.0 0.0 0.00 0.00 0.00 88 1007.6
20190123201011 22 342 0.0 0.0 0.00 0.00 0.00 88 1007.3
20190123200509 22 291 0.0 0.0 0.00 0.00 0.00 88 1007.3
20190123200004 22 333 0.0 0.0 0.00 0.00 0.00 88 1007.5
20190123195509 23 292 0.0 0.0 0.00 0.00 0.00 88 1007.6
20190123195013 23 319 0.0 0.0 0.00 0.00 0.00 88 1007.7
20190123194558 23 281 0.0 0.0 0.00 0.00 0.00 88 1007.7
20190123194008 23 288 0.0 0.0 0.00 0.00 0.00 88 1007.6
20190123193525 23 331 0.0 0.0 0.00 0.00 0.00 88 1007.8
20190123193105 23 298 0.0 0.0 0.00 0.00 0.00 89 1007.9
20190123192525 23 311 0.0 0.0 0.00 0.00 0.00 89 1008.0
20190123192021 23 324 0.0 0.0 0.00 0.00 0.00 90 1008.0
20190123191530 23 334 0.0 0.0 0.00 0.00 0.00 90 1007.9
20190123191020 23 280 0.0 0.0 0.00 0.00 0.00 90 1007.9
20190123190523 23 305 0.0 0.0 0.00 0.00 0.00 91 1007.8
20190123190051 23 318 0.0 0.0 0.00 0.00 0.00 91 1007.5
20190123185520 23 311 0.0 0.0 0.00 0.00 0.00 91 1007.5
20190123185022 23 293 0.0 0.0 0.00 0.00 0.00 91 1007.5
20190123184545 23 295 0.0 1.0 0.00 0.00 0.00 91 1007.6
20190123184020 23 314 0.0 1.0 0.00 0.00 0.00 91 1007.5
20190123183512 23 270 0.0 0.0 0.00 0.00 0.00 92 1007.6
20190123183008 23 296 0.0 0.0 0.00 0.00 0.00 92 1007.4
20190123182511 23 311 0.0 0.0 0.00 0.00 0.00 92 1007.7
20190123182017 23 323 0.0 0.0 0.00 0.00 0.00 92 1007.6
20190123181534 23 302 0.0 0.0 0.00 0.00 0.00 92 1007.5
20190123181012 23 333 0.0 0.0 0.00 0.00 0.00 92 1007.1
20190123180505 22 346 0.0 0.0 0.00 0.00 0.00 92 1007.0
20190123180020 22 323 0.0 0.0 0.00 0.00 0.00 92 1006.8
20190123175513 22 323 0.0 0.0 0.00 0.00 0.00 92 1006.7
20190123175014 22 309 0.0 0.0 0.00 0.00 0.00 92 1006.5
20190123174520 22 293 0.0 1.0 0.00 0.00 0.00 92 1006.2
20190123174012 22 335 0.0 1.0 0.00 0.00 0.00 92 1006.3
20190123173511 22 320 0.0 0.0 0.00 0.00 0.00 92 1006.6
20190123173021 22 317 0.0 0.0 0.00 0.00 0.00 92 1006.5
20190123172505 22 315 0.0 0.0 0.00 0.00 0.00 92 1006.6
20190123172015 22 360 0.0 0.0 0.00 0.00 0.00 93 1006.6
20190123171536 22 330 0.0 0.0 0.00 0.00 0.00 93 1006.3
20190123171012 22 329 0.0 0.0 0.00 0.00 0.00 93 1006.1
20190123170512 22 333 0.0 0.0 0.00 0.00 0.00 93 1006.0
20190123170028 22 309 0.0 1.0 0.00 0.00 0.00 93 1006.1
20190123165505 22 326 0.0 0.0 0.00 0.00 0.00 93 1006.3
20190123165018 22 301 0.0 0.0 0.00 0.00 0.00 93 1006.3
20190123164528 22 311 0.0 0.0 0.00 0.00 0.00 93 1006.2
20190123164011 22 326 0.0 0.0 0.00 0.00 0.00 93 1006.2
20190123163514 22 328 0.0 0.0 0.00 0.00 0.00 93 1006.4
20190123163100 22 281 0.0 0.0 0.00 0.00 0.00 94 1006.4
20190123162009 22 299 0.0 0.0 0.00 0.00 0.00 94 1006.0
20190123161514 22 334 0.0 0.0 0.00 0.00 0.00 94 1006.0
20190123161011 22 325 0.0 0.0 0.00 0.00 0.00 94 1006.0
20190123160513 22 267 0.0 1.0 0.00 0.00 0.00 94 1006.1
20190123160031 22 304 0.0 1.0 0.00 0.00 0.00 94 1006.2
20190123155515 22 329 0.0 0.0 0.00 0.00 0.00 94 1006.0
20190123155014 22 317 0.0 0.0 0.00 0.00 0.00 94 1006.1
20190123154540 22 12 0.0 0.0 0.00 0.00 0.00 94 1006.0
20190123154014 23 347 0.0 0.0 0.00 0.00 0.00 94 1005.8
20190123153518 23 311 0.0 0.0 0.00 0.00 0.00 95 1005.8
20190123153018 23 297 0.0 0.0 0.00 0.00 0.00 95 1005.7
20190123152510 23 280 0.0 1.0 0.00 0.00 0.00 95 1005.7
20190123152015 23 40 0.0 1.0 0.00 0.00 0.00 95 1005.4
20190123151520 23 349 0.0 0.0 0.00 0.00 0.00 95 1005.4
20190123151006 23 307 0.0 0.0 0.00 0.00 0.00 95 1005.1
20190123150512 23 9 0.0 0.0 0.00 0.00 0.00 95 1005.2
20190123150018 24 330 0.0 0.0 0.00 0.00 0.00 95 1005.2
20190123145512 24 305 0.0 0.0 0.00 0.00 0.00 95 1005.2
20190123145010 24 5 0.0 0.0 0.00 0.00 0.00 95 1005.1
20190123144548 24 325 0.0 0.0 0.00 0.00 0.00 95 1004.8
20190123144013 24 321 0.0 0.0 0.00 0.00 0.00 96 1004.9
20190123143515 24 339 0.0 0.0 0.00 0.00 0.00 95 1004.9
20190123143020 24 33 0.0 0.0 0.00 0.00 0.00 96 1004.7
20190123142511 24 24 0.0 0.0 0.00 0.00 0.00 96 1004.7
20190123142013 24 331 0.0 0.0 0.00 0.00 0.00 96 1004.8
20190123141523 24 317 0.0 0.0 0.00 0.00 0.00 96 1005.0
20190123141011 25 301 0.0 0.0 0.00 0.00 0.00 96 1005.0
20190123140513 25 24 0.0 0.0 0.00 0.00 0.00 96 1005.1
20190123140020 25 309 0.0 0.0 0.00 0.00 0.00 96 1005.1
20190123135515 25 360 0.0 0.0 0.00 0.00 0.00 96 1005.3
20190123135011 26 292 0.0 0.0 0.00 0.00 0.00 96 1005.2
20190123134513 26 303 0.0 0.0 0.00 0.00 0.00 96 1005.5
20190123134010 26 324 0.0 0.0 0.00 0.00 0.00 96 1005.5
20190123133509 26 319 0.0 0.0 0.00 0.00 0.00 96 1005.3
20190123133016 27 317 0.0 0.0 0.00 0.00 0.00 96 1005.4
20190123132512 27 317 0.0 0.0 0.00 0.00 0.00 96 1005.4
20190123132011 27 346 0.0 0.0 0.00 0.00 0.00 96 1005.0
20190123131517 27 5 0.0 0.0 0.00 0.00 0.00 96 1005.1
20190123131008 27 355 0.0 0.0 0.00 0.00 0.00 96 1005.1
20190123130515 28 5 0.0 0.0 0.00 0.00 0.00 97 1005.1
20190123130100 28 5 0.0 0.0 0.00 0.00 0.00 97 1005.3
20190123125511 28 360 0.0 0.0 0.00 0.00 0.00 96 1005.1
20190123125013 28 38 0.0 0.0 0.00 0.00 0.00 96 1005.0
20190123124531 28 35 0.0 0.0 0.00 0.00 0.00 97 1005.3
20190123124012 29 18 0.0 0.0 0.00 0.00 0.00 97 1005.1
20190123123511 29 355 0.0 0.0 0.00 0.00 0.00 97 1005.3
20190123123014 29 18 0.0 0.0 0.00 0.00 0.00 97 1005.7
20190123122514 29 32 0.0 0.0 0.00 0.00 0.00 97 1005.7
20190123122011 29 339 0.0 0.0 0.00 0.00 0.00 97 1005.6
20190123121538 30 347 0.0 0.0 0.00 0.00 0.00 97 1005.8
20190123121019 30 355 0.0 0.0 0.00 0.00 0.00 97 1005.2
20190123120515 30 22 0.0 0.0 0.00 0.00 0.00 97 1005.6
20190123120049 30 43 0.0 0.0 0.00 0.00 0.00 97 1005.4
20190123115514 30 44 0.0 0.0 0.00 0.00 0.00 97 1005.2
20190123115011 31 22 0.0 0.0 0.00 0.00 0.00 97 1004.8
20190123114540 31 33 0.0 0.0 0.00 0.00 0.00 97 1004.6
20190123114011 31 44 0.0 0.0 0.00 0.00 0.00 97 1005.2
20190123113512 31 5 0.0 0.0 0.00 0.00 0.00 97 1005.2
20190123113047 31 65 0.0 0.0 0.00 0.00 0.00 97 1005.1
20190123112511 31 55 0.0 0.0 0.00 0.00 0.00 97 1005.0
20190123112010 32 50 0.0 0.0 0.00 0.00 0.00 97 1004.9
20190123111549 32 57 0.0 0.0 0.00 0.00 0.00 97 1005.0
20190123111014 32 36 0.0 1.0 0.00 0.00 0.00 97 1004.9
20190123110513 32 51 0.0 1.0 0.00 0.00 0.00 97 1005.1
20190123110020 32 44 0.0 0.0 0.00 0.00 0.00 97 1005.9
20190123105511 32 35 0.0 0.0 0.00 0.00 0.00 97 1006.1
20190123105005 32 360 0.0 0.0 0.00 0.00 0.00 97 1005.8
20190123104010 32 44 0.0 0.0 0.00 0.00 0.00 97 1007.0
20190123103506 32 88 0.0 0.0 0.00 0.00 0.00 97 1007.4
20190123103036 32 82 0.0 0.0 0.00 0.00 0.00 97 1007.6
20190123102512 32 82 0.0 0.0 0.00 0.00 0.00 97 1007.9
20190123102011 32 82 0.0 0.0 0.00 0.00 0.00 97 1008.1
20190123101528 32 82 0.0 0.0 0.00 0.00 0.00 97 1008.2
20190123101016 32 82 0.0 0.0 0.00 0.00 0.00 97 1008.5
20190123100511 32 82 0.0 0.0 0.00 0.00 0.00 97 1008.5
20190123100017 32 82 0.0 0.0 0.00 0.00 0.00 97 1008.6
20190123095505 32 82 0.0 0.0 0.00 0.00 0.00 97 1008.7
20190123095009 32 82 0.0 0.0 0.00 0.00 0.00 97 1008.8
20190123094542 32 82 0.0 0.0 0.00 0.00 0.00 97 1008.8
20190123094012 32 82 0.0 0.0 0.00 0.00 0.00 97 1008.7
20190123093505 32 82 0.0 0.0 0.00 0.00 0.00 97 1008.3
20190123093022 32 82 0.0 0.0 0.00 0.00 0.00 97 1007.9
20190123092512 32 82 0.0 0.0 0.00 0.00 0.00 97 1007.6
20190123092012 32 82 0.0 0.0 0.00 0.00 0.00 97 1007.7
20190123091524 32 82 0.0 0.0 0.00 0.00 0.00 97 1007.9
20190123091011 32 82 0.0 0.0 0.00 0.00 0.00 97 1008.2
20190123090511 32 82 0.0 0.0 0.00 0.00 0.00 97 1007.9
20190123090020 32 82 0.0 0.0 0.00 0.00 0.00 97 1007.9
20190123085516 32 82 0.0 0.0 0.00 0.00 0.00 97 1008.2
20190123085012 32 82 0.0 0.0 0.00 0.00 0.00 97 1008.2
20190123084520 32 82 0.0 0.0 0.00 0.00 0.00 97 1007.9
20190123084011 32 82 0.0 0.0 0.00 0.00 0.00 97 1007.8
20190123083512 32 82 0.0 0.0 0.00 0.00 0.00 97 1007.8
20190123083018 32 82 0.0 0.0 0.00 0.00 0.00 97 1008.2
20190123082513 32 82 0.0 0.0 0.00 0.00 0.00 97 1008.8
20190123082007 32 82 0.0 0.0 0.00 0.00 0.00 97 1009.2
20190123081534 32 83 0.0 0.0 0.00 0.00 0.00 97 1009.1
20190123081016 32 69 0.0 0.0 0.00 0.00 0.00 97 1009.5
20190123080515 32 69 0.0 0.0 0.00 0.00 0.00 97 1009.9
20190123080042 32 69 0.0 0.0 0.00 0.00 0.00 97 1010.0
20190123075510 32 69 0.0 0.0 0.00 0.00 0.00 97 1009.7
20190123075010 32 69 0.0 0.0 0.00 0.00 0.00 97 1009.4
20190123074535 32 69 0.0 0.0 0.00 0.00 0.00 97 1009.4
20190123074014 32 80 0.0 0.0 0.00 0.00 0.00 97 1009.5
20190123073511 32 122 0.0 0.0 0.00 0.00 0.00 97 1010.2
20190123073014 32 122 0.0 0.0 0.00 0.00 0.00 97 1010.6
20190123072511 32 122 0.0 0.0 0.00 0.00 0.00 97 1010.7
20190123072010 32 122 0.0 0.0 0.00 0.00 0.00 97 1010.6
20190123071515 32 122 0.0 0.0 0.00 0.00 0.00 97 1010.4
20190123070518 32 122 0.0 0.0 0.00 0.00 0.00 97 1010.7
20190123070015 32 122 0.0 0.0 0.00 0.00 0.00 97 1010.7
20190123065513 32 122 0.0 0.0 0.00 0.00 0.00 97 1010.7
20190123065011 32 122 0.0 0.0 0.00 0.00 0.00 97 1010.7
20190123064522 32 122 0.0 0.0 0.00 0.00 0.00 97 1010.9
20190123064016 32 122 0.0 0.0 0.00 0.00 0.00 97 1011.0
20190123063512 32 122 0.0 0.0 0.00 0.00 0.00 97 1010.9
20190123063020 32 122 0.0 0.0 0.00 0.00 0.00 97 1010.9
20190123062516 32 122 0.0 0.0 0.00 0.00 0.00 97 1010.9
20190123062018 32 122 0.0 0.0 0.00 0.00 0.00 97 1011.2
20190123061535 32 122 0.0 0.0 0.00 0.00 0.00 97 1011.1
20190123061003 32 122 0.0 0.0 0.00 0.00 0.00 97 1011.1
20190123060513 32 122 0.0 0.0 0.00 0.00 0.00 97 1011.6
20190123060014 32 122 0.0 0.0 0.00 0.00 0.00 97 1011.2
20190123055511 32 122 0.0 0.0 0.00 0.00 0.00 97 1011.4
20190123055013 32 122 0.0 0.0 0.00 0.00 0.00 97 1011.3
20190123054518 32 122 0.0 0.0 0.00 0.00 0.00 97 1011.4
20190123054017 32 122 0.0 0.0 0.00 0.00 0.00 97 1011.5
20190123053512 32 122 0.0 0.0 0.00 0.00 0.00 97 1011.6
20190123053013 32 122 0.0 0.0 0.00 0.00 0.00 97 1011.7
20190123052012 32 0.0 0.0 0.00 0.00 0.00 97 1011.9
20190123051523 32 0.0 0.0 0.00 0.00 0.00 97 1012.1
20190123051011 32 122 0.0 0.0 0.00 0.00 0.00 97 1012.1
20190123050510 32 122 0.0 0.0 0.00 0.00 0.00 97 1012.2
20190123050023 32 123 0.0 0.0 0.00 0.00 0.00 97 1012.3
20190123045515 32 122 0.0 0.0 0.00 0.00 0.00 97 1012.4
20190123045013 32 122 0.0 0.0 0.00 0.00 0.00 97 1012.4
20190123044517 32 122 0.0 0.0 0.00 0.00 0.00 97 1012.4
20190123044010 32 146 0.0 0.0 0.00 0.00 0.00 97 1012.5
20190123043507 32 133 0.0 0.0 0.00 0.00 0.00 97 1012.4
20190123043021 32 123 0.0 0.0 0.00 0.00 0.00 97 1012.5
20190123042512 32 128 0.0 0.0 0.00 0.00 0.00 97 1012.5
20190123042010 32 134 0.0 0.0 0.00 0.00 0.00 97 1012.6
20190123041518 32 113 0.0 0.0 0.00 0.00 0.00 97 1012.7
20190123041010 32 138 0.0 0.0 0.00 0.00 0.00 97 1012.6
20190123040517 32 135 0.0 0.0 0.00 0.00 0.00 97 1012.7